Bloomington, IN

1:57 AM EDT on October 23, 2019 (GMT -0400)
Monroe County

Weather History for KBMG - August, 2019

Change the Weather History Date:

Wednesday, August 14, 2019

  Actual Average Record
Temperature  
Mean Temperature 76 °F 73 °F  
Max Temperature 87 °F 85 °F 89 °F (2007)
Min Temperature 65 °F 62 °F 46 °F (2004)
Degree Days  
Heating Degree Days 0 0  
Month to date heating degree days 0 0  
Since 1 June heating degree days 14 17  
Since 1 July heating degree days 0 2  
Cooling Degree Days 11 9  
Month to date cooling degree days 131 126  
Year to date cooling degree days 838 692  
Since 1 June cooling degree days 707 610  
Growing Degree Days 26 (Base 50)    
Moisture  
Dew Point 69 °F    
Average Humidity 76    
Maximum Humidity 100    
Minimum Humidity 51    
Precipitation  
Precipitation 0.00 in 0.08 in 1.93 in (2016)
Month to date precipitation 0.65 1.47  
Year to date precipitation 32.69 31.14  
Sea Level Pressure  
Sea Level Pressure 29.93 in    
Wind  
Wind Speed 3 mph (WNW)    
Max Wind Speed 13 mph    
Max Gust Speed 20 mph    
Visibility 9 miles    
Events Fog    
T = Trace of Precipitation, MM = Missing Value Source: NWS Daily Summary

Daily Weather History Graph

Daily Weather History Graph

Search for Another Location

Airport or City:

Astronomy

Aug. 14, 2019 Rise Set
Actual Time 6:58 AM EDT 8:43 PM EDT
Civil Twilight 6:29 AM EDT 9:11 PM EDT
Nautical Twilight 5:55 AM EDT 9:46 PM EDT
Astronomical Twilight 5:17 AM EDT 10:23 PM EDT
Moon 8:36 PM EDT (8/14) 5:56 AM EDT (8/14)
Length of Visible Light 14h 42m
Length of Day
13h 44m
Waxing Gibbous, 99% of the Moon is Illuminated
Aug 14
Waxing Gibbous
Aug 15
Full
Aug 23
Last Quarter
Aug 30
New
Sep 5
First Quarter

Hourly Weather History & Observations

Time (EDT) Temp. Heat Index Dew Point Humidity Pressure Visibility Wind Dir Wind Speed Gust Speed Precip Events Conditions
12:53 AM 71.1 °F - 70.0 °F 96% 29.90 in 10.0 mi Calm Calm - N/A   Clear
1:53 AM 72.0 °F - 71.1 °F 97% 29.91 in 10.0 mi Calm Calm - N/A   Clear
2:53 AM 70.0 °F - 70.0 °F 100% 29.89 in 10.0 mi Calm Calm - N/A   Clear
3:53 AM 69.1 °F - 69.1 °F 100% 29.89 in 7.0 mi West 3.5 mph - N/A   Clear
4:53 AM 69.1 °F - 69.1 °F 100% 29.91 in 7.0 mi West 3.5 mph - N/A   Partly Cloudy
5:53 AM 68.0 °F - 68.0 °F 100% 29.91 in 4.0 mi Calm Calm - N/A   Clear
6:04 AM 68.0 °F - 68.0 °F 100% 29.94 in 1.5 mi Calm Calm - N/A   Clear
6:12 AM 66.9 °F - 66.9 °F 100% 29.94 in 0.5 mi Calm Calm - N/A Fog Fog
6:36 AM 66.9 °F - 66.9 °F 100% 29.95 in 6.0 mi Calm Calm - N/A   Mostly Cloudy
7:53 AM 70.0 °F - 70.0 °F 100% 29.93 in 5.0 mi Calm Calm - N/A   Mostly Cloudy
8:53 AM 73.9 °F - 72.0 °F 93% 29.94 in 10.0 mi Variable 3.5 mph - N/A   Clear
9:29 AM 75.0 °F - 72.0 °F 90% 29.96 in 10.0 mi Variable 4.6 mph - N/A   Partly Cloudy
9:53 AM 75.0 °F - 72.0 °F 90% 29.95 in 10.0 mi WNW 3.5 mph - N/A   Clear
10:53 AM 80.1 °F 83.8 °F 72.0 °F 76% 29.96 in 10.0 mi North 5.8 mph - N/A   Clear
11:53 AM 82.9 °F 88.0 °F 72.0 °F 69% 29.96 in 10.0 mi Variable 5.8 mph - N/A   Partly Cloudy
12:53 PM 84.0 °F 89.0 °F 71.1 °F 65% 29.95 in 10.0 mi WNW 5.8 mph - N/A   Scattered Clouds
1:53 PM 84.9 °F 89.4 °F 70.0 °F 61% 29.94 in 10.0 mi Variable 3.5 mph - N/A   Clear
2:53 PM 86.0 °F 88.8 °F 66.9 °F 53% 29.93 in 10.0 mi West 6.9 mph - N/A   Scattered Clouds
3:53 PM 84.9 °F 87.6 °F 66.9 °F 55% 29.92 in 10.0 mi WNW 8.1 mph - N/A   Mostly Cloudy
4:53 PM 82.9 °F 86.5 °F 69.1 °F 63% 29.91 in 10.0 mi Calm Calm - N/A   Mostly Cloudy
5:53 PM 84.9 °F 88.2 °F 68.0 °F 57% 29.90 in 10.0 mi West 9.2 mph 20.7 mph N/A   Scattered Clouds
6:53 PM 84.0 °F 86.3 °F 66.0 °F 55% 29.89 in 10.0 mi West 8.1 mph 18.4 mph N/A   Clear
7:53 PM 80.1 °F 82.1 °F 66.0 °F 62% 29.89 in 10.0 mi West 4.6 mph - N/A   Clear
8:53 PM 73.0 °F - 66.9 °F 81% 29.91 in 10.0 mi WNW 3.5 mph - N/A   Clear
9:53 PM 73.0 °F - 64.9 °F 76% 29.93 in 10.0 mi Calm Calm - N/A   Clear
10:53 PM 69.1 °F - 66.0 °F 90% 29.96 in 10.0 mi West 3.5 mph - N/A   Clear
11:53 PM 68.0 °F - 64.9 °F 90% 29.97 in 10.0 mi Calm Calm - N/A   Clear